Regional Weather Roundup
Issued by NWS

Home | Current Version | Previous Version | Graphics & Text | Print | Product List | Glossary On
Versions: 1 2 3 4 5 6 7 8 9 10 11 12 13 14 15 16 17 18 19 20 21 22 23 24 25 26 27 28 29 30 31 32 33 34 35 36 37 38 39 40 41 42 43 44 45 46 47 48 49 50
000
ASUS45 KCYS 260810
RWRWY

WYOMING REGIONAL WEATHER ROUNDUP
NATIONAL WEATHER SERVICE CHEYENNE WY
200 AM MDT SAT JUL 26 2014

NOTE:  "FAIR" INDICATES FEW OR NO CLOUDS BELOW 12,000 FEET
WITH NO SIGNIFICANT WEATHER AND/OR OBSTRUCTIONS TO VISIBILITY.

WYZ001-260900-
YELLOWSTONE NATIONAL PARK

CITY           SKY/WX    TMP DP  RH WIND       PRES   REMARKS
LK YELLOWSTONE   N/A     38  29  70 CALM      30.31S
W YELLOWSTONE  NOT AVBL

$$
WYZ002>013-054>058-071-098>099-260900-
NORTHERN WYOMING

CITY           SKY/WX    TMP DP  RH WIND       PRES   REMARKS
JACKSON        CLEAR     43  30  61 N8        30.21R
CODY           NOT AVBL
GREYBULL       CLEAR     73  26  17 N8        29.99R
WORLAND        CLEAR     61  30  31 S8        30.02R
SHERIDAN       CLEAR     57  36  45 W14       30.05R
BUFFALO        CLEAR     64  26  23 W13       30.10S
GILLETTE       CLEAR     60  34  37 W3        30.02R
HULETT         FAIR      57  50  77 MISG      30.01
NEWCASTLE      FAIR      66  46  48 N10       29.96

$$
WYZ014>020-022>026-101>103-260900-
CENTRAL WYOMING

CITY           SKY/WX    TMP DP  RH WIND       PRES   REMARKS
BIG PINEY      CLEAR     50  29  44 N5        30.27S
PINEDALE       SUNNY     43  32  65 W6        30.29R
DUBOIS         FAIR      52  23  32 NW14      30.22S
LANDER         CLEAR     61  26  26 SE3       30.10S
RIVERTON       CLEAR     64  24  21 W7        30.11R
CASPER         CLEAR     60  37  42 CALM      30.12R
DOUGLAS        CLEAR     67  46  47 NW13      30.07R

$$
WYZ021-027>030-104>119-260900-
SOUTHERN WYOMING

CITY           SKY/WX    TMP DP  RH WIND       PRES   REMARKS
EVANSTON       PTCLDY    63  34  33 N8        30.27R
KEMMERER       MOSUNNY   55  30  38 NW10      30.28R
FORT BRIDGER   FAIR      64  30  27 W5        30.29R
ROCK SPRINGS   PTCLDY    65  22  19 N6        30.22S
DIXON          FAIR      60  44  55 CALM      30.24S
RAWLINS        PTCLDY    67  42  40 SW15      30.22S
SARATOGA       FAIR      57  45  62 SE6       30.25S
LARAMIE        CLEAR     63  42  46 SW17      30.22F
CHEYENNE       CLEAR     70  43  37 W20       30.11F
TORRINGTON     CLEAR     67  55  65 NW8       29.92S
PINE BLUFFS    FAIR      59  54  82 S7        30.05S

$$



USA.gov is the U.S. government's official web portal to all federal, state and local government web resources and services.